Kosmos-2204

operational
NORAD ID: 22056 Int'l Des: 1992-047 Owner: VVSR Country: RU Constellation: GLONASS
MEOCIRCULAR

关于 Kosmos-2204

正在加载描述...

实时位置

正在加载3D地球...

即将过境

高度历史

Altitude vs Time

uPlot chart will show altitude changes over time

两行轨道根数

1 22056U 92047A 26060.36396905 -.00000021 00000-0 00000+0 0 9995
2 22056 64.2116 305.8972 0009295 248.6319 292.0954 2.13107075261320
Epoch: Mar 1, 2026 • Age: 55 hours

当前状态

高度 19119.2 km
速度 3.96 km/s
星下点 -28.60°S, 121.46°W
发射日期 Jul 30, 1992
运行时间 33.5 years
类型 other

技术详情

分类 Payload
质量 1300.00 kg
干质量 1200.00 kg
总质量 1300.00 kg
长度 4.00 m
直径 1.50 m
跨度 7.80 m
形状 Cyl + Ant + 2 Pan
制造商 POL
平台类型 Uragan
阶段状态 In Orbit
所有者/国家 VVSR/RU

大型星座

Loading constellations...